Погода в Серове

Поиск расширенной информации на нашем сайте:

Полезная информация:

Новости сайта



02.01.2020
Опубликован Долгосрочный прогноз погоды по городам России и ближнего зарубежья на январь 2020 года.
Карты: Прогноз на январь и февраль 2020 года, Сравнение прогнозируемой аномалии приземной температуры воздуха на январь 2020 года по разным моделям.




Погода в Серове - сегодня

Время (UTC), дата Ветер
(°,м/с) 
Видим.   Явления Облачность Т
(°С)
Тd
(°С)
f(%) Тe
(°С)
Pmin
(гПа)
dP
(гПа)
Po
(мм)
O2
(г/м3)
Тmin Tmax R s Состояние
почвы
12 09.08.20 360 (С) 10 км  слаб. дождь  10/10 300 м 
[Frnb|Ns]
+11.8 +10 89 +13  1006.2  -0.2  744  285           
15 09.08.20 360 (С) 10 км  слаб. дождь  10/10 300 м 
[Frnb|Ns]
+11.7 +10 89 +12  1005.9  -0.3  743  285    +13  12     
18 09.08.20 360 (С) 3{10}  2000 м  слаб. дождь  10/10 300 м 
[Frnb|Ns]
+11.8 +9.8 88 +13  1004.8  -1.1  743  285           
21 09.08.20 360 (С) 2000 м  слаб. дождь  10/10 300 м 
[Frnb|Ns]
+11.7 +9.8 88 +12  1003  -1.8  741  285           
00 10.08.20 350 (С) 2000 м  слаб. дождь  10/10 300 м 
[Frnb|Ns]
+11.7 +9.8 88 +12  1002  -0.9  740  284           
03 10.08.20 010 (С) 20000 м  слаб. дождь  10/10 300 м 
[Frnb|Ns]
+11.7 +9.8 88 +12  1001.4  -0.7  740  284  +11.5      влажная 
06 10.08.20 010 (С) 4{10}  20000 м  в посл. час дождь  10/10 300 м 
[Frnb]
+12.1 +10 87 +13  1001.7  0.3  740  284           
09 10.08.20 350 (С) 4{11}  20000 м  в посл. час дождь  10/10 300 м 
[Frnb]
+12.9 +10.4 85 +14  1001.8  0.2  740  283           
12 10.08.20 360 (С) 5-10{13}  20000 м  слаб. дождь  10/10 300 м 
[Frnb|Ns]
+12 +10.2 89 +13  1002.3  0.4  741  284           
15 10.08.20 350 (С) 4-11{13}  20000 м  {дождь}  10/10 300 м 
[Frnb]
+12.6 +9.9 84 +13  1002.9  0.6  741  284    +13.1  10     
18 10.08.20 360 (С) 4{15}  10 км  {дождь}  10/10 300 м 
[Frnb]
+12.3 +9.3 82 +13  1003  -0.1  741  284           
21 10.08.20 350 (С) 4-10{12}  10 км    10/10 300 м 
[Frnb]
+11.7 +8.5 81 +11  1003.3  0.3  741  285           
00 11.08.20 330 (СЗ) 3{10}  10 км    10/10 600 м 
[Cu Sc]
+11.1 +7.6 79 +11  1003.1  0.3  741  286           
03 11.08.20 340 (С) 5-13{13}  20000 м    9/9 600 м 
[Sc]
+10.8 +7.5 80 +10  1003.6  0.3  742  286  +10.7        влажная 
06 11.08.20 350 (С) 4{13}  20000 м  {дождь}  8/5 600 м верхняя 
[Cu Sc|Ci fib]
+14.5 +7.2 62 +14  1003.7  0.3  742  283  +10.6         
09 11.08.20 360 (С) 3{15}  20000 м    9/4 600 м верхняя 
[Cu hum|Ci fib]
+18.4 +6.2 45 +19  1004  0.5  742  279           
12 11.08.20 350 (С) 20000 м    8/3 600 м верхняя 
[Cu hum|Ci fib]
+20.2 +6.8 42 +20  1004.3  0.4  742  277           
15 11.08.20 340 (С) 20000 м    8/4 600 м верхняя 
[Cu Sc|Ci fib]
+18.2 +6 45 +19  1005.3  0.8  743  280    +20.4     
18 11.08.20 320 (СЗ) 10 км    4/4 600 м 
[Sc]
+13.1 +6.2 63 +13  1006.6  1.1  744  285           
21 11.08.20 340 (С) 10 км    ясно 
+11.5 +5.4 66 +11  1006.9  0.2  744  287           
00 12.08.20 330 (СЗ) 10 км    ясно 
+10 +4.7 70 +10  1007.6  0.6  744  289           
03 12.08.20 340 (С) 20000 м    ясно 
+12.5 +5.1 61 +12  1008.1  0.7  745  286  +9.2        влажная 
06 12.08.20 360 (С) 20000 м    4/4 600 м 
[Cu hum]
+16.3 +5.5 49 +17  1008.1  0.2  745  282           
09 12.08.20 320 (СЗ) 20000 м    6/6 300 м кучево-дожд. 
[Cb calv]
+17.4 +4.6 43 +18  1008.2  0.1  745  282           
12 12.08.20 320 (СЗ) 20000 м    9/9 300 м кучево-дожд. 
[Cb calv]
+17.4 +4.7 43 +18  1008.6  0.4  746  282           
Время (UTC), дата Ветер
(°,м/с) 
Видим.   Явления Облачность Т
(°С)
Тd
(°С)
f(%) Тe
(°С)
Pmin
(гПа)
dP
(гПа)
Po
(мм)
O2
(г/м3)
Тmin Tmax R s Состояние
почвы

Для получения пояснительной информации подведите курсор к названию столбца.

ПОГОДА в Серове - архив

Всё, что Вы хотите узнать о погоде в Серове - удобно и подробно!

Выберите нужную дату (начиная с 1 января 2019* года) и нажмите кнопку "Найти".
Будут отображены архивные сводки погоды по пункту Серов, начиная с указанной даты.


Отображать данные в формате CSV (для использования в таблицах Excel)


Внимание! Наш архив погоды предназначен исключительно для личного некоммерческого использования в познавательных целях. Если Вам необходимы официальные справки о состоянии погоды (для производственных, юридических, коммерческих и т.п. целей), обращайтесь в органы Росгидромета.

*Примечание: данная дата относится к архиву по метеостанциям СССР (Россия, СНГ, Балтия).
Архив по метеостанциям Зарубежной Европы и Азии (кроме Китая) хранится 10 дней, по другим регионам земного шара (Китай, Африка, Америка, Австралия, Океания) - 1 день.

Серов - район местоположения метеостанции


Название, широта, долгота, высота метеостанции:
Серов 59.6°ш. 60.5°д. 130 м над ур. моря [Российская Федерация]

Дополнительная информация

В oтличие oт бoльшинства пoгoдных сайтoв мы публикуем пoдрoбную метеoинфoрмацию в детальнoм прoфессиoнальнoм фoрмате.

Характеристики температуры и влажнoсти вoздуха измеряются на высoте 2 м в тени вдали oт зданий и деревьев.
Скoрoсть ветра измеряется на высoте 10 м (на урoвне рoста челoвека скoрoсть ветра ниже в 1.5-2 раза). Если метеoстанция нахoдится в гoрoде или в лесу, тo скoрoсть ветра занижена на 2-4 м/с пo сравнению с oткрытым местoм. Скoрoсть ветра над акватoриями крупных рек и oзёр, а также на вершинах хoлмoв на 2-5 м/с выше, чем в oбычных услoвиях.
Атмoсфернoе давление в разных тoчках местнoсти мoжет значительнo oтличаться oт давления на метеoстанции, в зависимoсти oт услoвий рельефа (при пoдъёме на 10 м давление пoнижается примернo на 1 мм рт.ст.).